Home > Weather > Harare > Past weeks

Flag for Zimbabwe Past Weather in Harare, Zimbabwe — Yesterday and Last 2 Weeks

Now
52 °F

Clear.


Feels Like: 48 °F
Forecast: 45 / 77 °F
Wind: 10 mph from Southeast

Location: Harare Kutsaga Airport

Current Time: Aug 27, 2016 at 1:26:54 AM

Latest Report: Aug 27, 2016 at 1:00 AM


Visibility: 10 mi

Pressure: 30.39 "Hg (25.40 "Hg at 1490m altitude)

Humidity: 58%

Dew Point: 37 °F

Location of HarareLocation

Past Weather in Harare — Graph

°F

Harare Temperature Yesterday

Maximum temperature yesterday: 79 °F (at 2:00 PM)
Minimum temperature yesterday: 41 °F (at 4:00 AM)
Average temperature yesterday: 61 °F

High & Low Weather Summary for the Past Weeks

 TemperatureHumidityPressure
High86 °F (Aug 22, 3:00 PM)100% (Aug 15, 8:00 AM)30.45 "Hg (Aug 15, 8:00 AM)
Low37 °F (Aug 12, 6:00 AM)10% (Aug 26, 12:00 PM)30.15 "Hg (Aug 13, 3:00 PM)
Average63 °F49%30.31 "Hg
* Reported Aug 12 2:00 AM — Aug 27 12:00 AM, Harare, Weather by CustomWeather, © 2016

Note: Actual official high and low records may vary slightly from our data, if they occured in-between our weather recording intervals... More about our weather records

Advertising

Harare Weather History for the Previous 24 Hours

Scroll right to see more
 ConditionsComfort  
Time TempWeatherWind HumidityBarometerVisibility
12:00 AM
Sat, Aug 27
54 °FClear.10 mph51%30.39 "Hg10 mi
11:00 PM
Fri, Aug 26
54 °FClear.6 mph41%30.42 "Hg10 mi
10:00 PM55 °FClear.7 mph38%30.42 "Hg10 mi
9:00 PM59 °FClear.7 mph34%30.39 "Hg10 mi
8:00 PM63 °FClear.7 mph27%30.39 "Hg10 mi
7:00 PM63 °FClear.6 mph22%30.36 "Hg10 mi
6:00 PM68 °FPassing clouds.5 mph18%30.33 "HgN/A
5:00 PM77 °FPassing clouds.9 mph11%30.30 "HgN/A
4:00 PM79 °FPassing clouds.7 mph12%30.30 "HgN/A
3:00 PM79 °FPassing clouds.10 mph12%30.27 "HgN/A
2:00 PM79 °FPassing clouds.8 mph12%30.30 "HgN/A
1:00 PM77 °FPassing clouds.10 mph11%30.33 "HgN/A
12:00 PM75 °FPassing clouds.13 mph10%30.36 "HgN/A
11:00 AM73 °FSunny.8 mph15%30.39 "Hg10 mi
10:00 AM70 °FPassing clouds.8 mph20%30.42 "HgN/A
9:00 AM64 °FPassing clouds.9 mph30%30.42 "HgN/A
8:00 AM57 °FPassing clouds.3 mph55%30.39 "HgN/A
7:00 AM46 °FSunny.3 mph82%30.36 "Hg10 mi
6:00 AM43 °FClear.6 mph81%30.36 "Hg10 mi
5:00 AM43 °FClear.6 mph81%30.33 "Hg10 mi
4:00 AM41 °FClear.2 mph93%30.33 "Hg10 mi
3:00 AM46 °FClear.5 mph76%30.33 "Hg10 mi
2:00 AM48 °FClear.5 mph66%30.33 "Hg10 mi
1:00 AM48 °FClear.3 mph66%30.33 "Hg10 mi
Weather by CustomWeather, © 2016

See weather overviewHow to use our weather pages